Flag for Austria Weather past 2 weeks in Saalfelden am Steinernen Meer, Salzburg, Austria

Now
68 °F

Mild.


Feels Like: 68 °F
Forecast: 63 / 89 °F
Wind: 3 mph from Southeast

Location: Salzburg-Flughafen

Current Time: Jul 4, 2015 at 5:21:07 AM

Latest Report: Jul 4, 2015 at 4:50 AM


Visibility: N/A

Pressure: 30.24 "Hg (27.75 "Hg at 738m altitude)

Humidity: 78%

Dew point: 61 °F

Location of Saalfelden am Steinernen MeerLocation

Historic Weather in Saalfelden am Steinernen Meer — Graph

°F

Saalfelden am Steinernen Meer temperature yesterday

Maximum temperature yesterday: 90 °F (at 4:50 PM)
Minimum temperature yesterday: 61 °F (at 4:20 AM)
Average temperature yesterday: 76 °F

Past Weeks' High & Low Weather Summary

 TemperatureHumidityPressure
High90 °F (Jul 3, 4:50 PM)100% (Jun 20, 7:20 AM)30.30 "Hg (Jun 20, 7:20 AM)
Low48 °F (Jun 20, 10:20 AM)33% (Jul 3, 4:20 PM)29.71 "Hg (Jun 23, 12:50 AM)
Average64 °F72%30.13 "Hg
* Reported Jun 19 3:20 AM — Jul 4 3:50 AM, Saalfelden am Steinernen Meer, Weather by CustomWeather, © 2015

Note: Actual official high and low records may vary slightly from our data, if they occured in-between our weather recording intervals... More about our weather records

Advertising

Saalfelden am Steinernen Meer weather history for previous 24 hours

 ConditionsComfort  
Time TempWeatherWind HumidityBarometerVisibility
3:50 AM
Sat, Jul 4
68 °FMild.2 mph83%30.24 "HgN/A
3:20 AM70 °FMild.5 mph78%30.24 "HgN/A
2:50 AM68 °FMild.5 mph83%30.24 "HgN/A
2:20 AM70 °FMild.5 mph78%30.27 "HgN/A
1:50 AM70 °FMild.2 mph78%30.27 "HgN/A
1:20 AM70 °FMild.3 mph78%30.27 "HgN/A
12:50 AM70 °FMild.6 mph83%30.27 "HgN/A
12:20 AM72 °FMild.3 mph78%30.27 "HgN/A
11:50 PM
Fri, Jul 3
73 °FMild.6 mph74%30.27 "HgN/A
11:20 PM72 °FMild.3 mph78%30.27 "HgN/A
10:50 PM73 °FClear.5 mph74%30.27 "Hg10 mi
10:20 PM75 °FPassing clouds.5 mph69%30.27 "HgN/A
9:50 PM77 °FSunny.2 mph65%30.27 "Hg10 mi
9:20 PM77 °FSunny.2 mph65%30.27 "Hg10 mi
8:50 PM81 °FSunny.6 mph54%30.24 "Hg10 mi
8:20 PM84 °FScattered clouds.5 mph45%30.24 "HgN/A
7:50 PM86 °FScattered clouds.7 mph43%30.24 "HgN/A
7:20 PM86 °FScattered clouds.8 mph49%30.24 "HgN/A
6:50 PM88 °FPartly sunny.7 mph40%30.24 "HgN/A
6:20 PM90 °FPartly sunny.6 mph36%30.24 "HgN/A
5:50 PM90 °FPartly sunny.6 mph36%30.24 "HgN/A
5:20 PM88 °FPartly sunny.6 mph38%30.24 "HgN/A
4:50 PM90 °FPartly sunny.7 mph33%30.27 "HgN/A
4:20 PM88 °FScattered clouds.8 mph33%30.27 "HgN/A
3:50 PM88 °FScattered clouds.7 mph40%30.27 "HgN/A
3:20 PM88 °FPartly sunny.6 mph43%30.27 "HgN/A
2:50 PM86 °FPartly sunny.7 mph46%30.27 "HgN/A
2:20 PM86 °FPartly sunny.7 mph46%30.27 "HgN/A
1:50 PM86 °FScattered clouds.9 mph49%30.30 "HgN/A
1:20 PM86 °FScattered clouds.6 mph46%30.30 "HgN/A
12:50 PM84 °FScattered clouds.7 mph48%30.30 "HgN/A
12:20 PM84 °FPassing clouds.6 mph51%30.30 "HgN/A
11:50 AM82 °FPassing clouds.6 mph58%30.30 "HgN/A
11:20 AM82 °FPassing clouds.6 mph55%30.30 "HgN/A
10:50 AM81 °FSunny.2 mph54%30.30 "Hg10 mi
10:20 AM79 °FSunny.2 mph58%30.30 "Hg10 mi
9:50 AM79 °FPassing clouds.3 mph61%30.30 "HgN/A
9:20 AM77 °FSunny.3 mph61%30.30 "Hg10 mi
8:50 AM75 °FPassing clouds.5 mph65%30.30 "HgN/A
8:20 AM73 °FPassing clouds.6 mph69%30.30 "HgN/A
7:50 AM72 °FPassing clouds.5 mph73%30.30 "HgN/A
7:20 AM68 °FPassing clouds.3 mph78%30.30 "HgN/A
6:50 AM64 °FSunny.2 mph88%30.30 "Hg10 mi
6:20 AM64 °FSunny.1 mph88%30.27 "Hg10 mi
5:50 AM61 °FPassing clouds.3 mph94%30.27 "HgN/A
5:20 AM61 °FCool.2 mph88%30.27 "HgN/A
Weather by CustomWeather, © 2015

See weather overviewHow to use our weather pages